| time (UTC) | temp F | wind direction | speed MPH | gust MPH | rain 1hr in | rain 24hr in | rain mn in | humidity % | barometer mb |
| 20260506073044 | 74 | 25 | 0.0 | 0.0 | 0.00 | 0.00 | 0.00 | 99 | 1009.9 |
| 20260506072541 | 74 | 43 | 0.0 | 0.0 | 0.00 | 0.00 | 0.00 | 99 | 1009.8 |
| 20260506072039 | 74 | 34 | 0.0 | 0.0 | 0.00 | 0.00 | 0.00 | 99 | 1009.7 |
| 20260506071537 | 74 | 29 | 0.0 | 0.0 | 0.00 | 0.00 | 0.00 | 99 | 1009.9 |
| 20260506071034 | 74 | 48 | 0.0 | 0.0 | 0.00 | 0.00 | 0.00 | 99 | 1009.7 |
| 20260506070531 | 74 | 33 | 0.0 | 0.0 | 0.00 | 0.00 | 0.00 | 99 | 1009.9 |
| 20260506062508 | 75 | 25 | 0.0 | 0.0 | 0.00 | 0.00 | 0.00 | 99 | 1009.8 |
| 20260506062005 | 75 | 26 | 0.0 | 0.0 | 0.00 | 0.00 | 0.00 | 99 | 1009.8 |
| 20260506061500 | 75 | 44 | 0.0 | 0.0 | 0.00 | 0.00 | 0.00 | 99 | 1009.7 |
| 20260506060958 | 75 | 44 | 0.0 | 0.0 | 0.00 | 0.00 | 0.00 | 99 | 1009.7 |
| 20260506060457 | 75 | 31 | 0.0 | 0.0 | 0.00 | 0.00 | 0.00 | 99 | 1009.7 |
| 20260506050926 | 75 | 49 | 0.0 | 0.0 | 0.00 | 0.00 | 0.00 | 98 | 1009.6 |
| 20260506050423 | 75 | 27 | 0.0 | 0.0 | 0.00 | 0.00 | 0.00 | 98 | 1009.7 |
| 20260506044914 | 75 | 296 | 0.0 | 1.0 | 0.00 | 0.00 | 0.00 | 98 | 1009.5 |
| 20260506044412 | 75 | 42 | 0.0 | 1.0 | 0.00 | 0.00 | 0.00 | 98 | 1009.9 |
| 20260506043908 | 75 | 3 | 0.0 | 0.0 | 0.00 | 0.00 | 0.00 | 98 | 1009.6 |
| 20260506043406 | 75 | 73 | 0.0 | 0.0 | 0.00 | 0.00 | 0.00 | 97 | 1009.6 |
| 20260506042904 | 75 | 35 | 0.0 | 0.0 | 0.00 | 0.00 | 0.00 | 97 | 1009.4 |
| 20260506042403 | 75 | 45 | 0.0 | 0.0 | 0.00 | 0.00 | 0.00 | 97 | 1009.3 |
| 20260506041901 | 75 | 34 | 0.0 | 0.0 | 0.00 | 0.00 | 0.00 | 97 | 1009.6 |
| 20260506041358 | 75 | 53 | 2.0 | 4.0 | 0.00 | 0.00 | 0.00 | 97 | 1009.4 |
| 20260506040855 | 75 | 52 | 0.0 | 1.0 | 0.00 | 0.00 | 0.00 | 97 | 1009.5 |
| 20260506040353 | 75 | 75 | 1.0 | 1.0 | 0.00 | 0.00 | 0.00 | 97 | 1009.3 |
| 20260506035848 | 75 | 37 | 0.0 | 0.0 | 0.00 | 0.00 | 0.00 | 97 | 1009.5 |
| 20260506035345 | 76 | 81 | 2.0 | 2.0 | 0.00 | 0.00 | 0.00 | 97 | 1009.5 |
| 20260506034842 | 76 | 14 | 1.0 | 2.0 | 0.00 | 0.00 | 0.00 | 96 | 1009.5 |
| 20260506034339 | 76 | 37 | 0.0 | 0.0 | 0.00 | 0.00 | 0.00 | 96 | 1009.4 |
| 20260506033836 | 76 | 52 | 1.0 | 1.0 | 0.00 | 0.00 | 0.00 | 96 | 1009.4 |
| 20260506033333 | 76 | 115 | 0.0 | 0.0 | 0.00 | 0.00 | 0.00 | 96 | 1009.2 |
| 20260506032830 | 76 | 330 | 1.0 | 1.0 | 0.00 | 0.00 | 0.00 | 96 | 1009.2 |
| 20260506032327 | 76 | 42 | 0.0 | 0.0 | 0.00 | 0.00 | 0.00 | 96 | 1009.1 |
| 20260506031824 | 76 | 85 | 0.0 | 0.0 | 0.00 | 0.00 | 0.00 | 96 | 1009.2 |
| 20260506031322 | 76 | 39 | 0.0 | 0.0 | 0.00 | 0.00 | 0.00 | 96 | 1009.2 |
| 20260506030819 | 76 | 56 | 0.0 | 1.0 | 0.00 | 0.00 | 0.00 | 96 | 1009.2 |
| 20260506030317 | 76 | 55 | 0.0 | 0.0 | 0.00 | 0.00 | 0.00 | 96 | 1009.1 |
| 20260506025814 | 76 | 244 | 2.0 | 3.0 | 0.00 | 0.00 | 0.00 | 95 | 1009.0 |
| 20260506025310 | 76 | 121 | 1.0 | 2.0 | 0.00 | 0.00 | 0.00 | 95 | 1008.9 |
| 20260506024807 | 76 | 48 | 1.0 | 1.0 | 0.00 | 0.00 | 0.00 | 95 | 1008.7 |
| 20260506024304 | 76 | 33 | 0.0 | 0.0 | 0.00 | 0.00 | 0.00 | 95 | 1008.5 |
| 20260506023800 | 76 | 48 | 0.0 | 0.0 | 0.00 | 0.00 | 0.00 | 95 | 1008.5 |
| 20260506023257 | 76 | 41 | 0.0 | 0.0 | 0.00 | 0.00 | 0.00 | 95 | 1008.7 |
| 20260506022753 | 76 | 52 | 0.0 | 0.0 | 0.00 | 0.00 | 0.00 | 95 | 1008.3 |
| 20260506022252 | 76 | 78 | 1.0 | 1.0 | 0.00 | 0.00 | 0.00 | 95 | 1008.5 |
| 20260506021749 | 76 | 71 | 0.0 | 1.0 | 0.00 | 0.00 | 0.00 | 95 | 1008.2 |
| 20260506021246 | 76 | 50 | 0.0 | 0.0 | 0.00 | 0.00 | 0.00 | 95 | 1008.3 |
| 20260506020743 | 76 | 49 | 0.0 | 0.0 | 0.00 | 0.00 | 0.00 | 95 | 1008.2 |
| 20260506020241 | 76 | 42 | 0.0 | 0.0 | 0.00 | 0.00 | 0.00 | 95 | 1008.3 |
| 20260506015739 | 76 | 32 | 0.0 | 0.0 | 0.00 | 0.00 | 0.00 | 95 | 1008.0 |
| 20260506015236 | 76 | 66 | 0.0 | 1.0 | 0.00 | 0.00 | 0.00 | 95 | 1008.1 |
| 20260506014732 | 76 | 66 | 0.0 | 1.0 | 0.00 | 0.00 | 0.00 | 94 | 1007.6 |
| 20260506014229 | 76 | 37 | 0.0 | 0.0 | 0.00 | 0.00 | 0.00 | 94 | 1007.7 |
| 20260506013726 | 77 | 80 | 0.0 | 1.0 | 0.00 | 0.00 | 0.00 | 94 | 1007.8 |
| 20260506013223 | 76 | 53 | 0.0 | 0.0 | 0.00 | 0.00 | 0.00 | 94 | 1007.9 |
| 20260506012720 | 77 | 47 | 0.0 | 1.0 | 0.00 | 0.00 | 0.00 | 94 | 1007.8 |
| 20260506012217 | 77 | 32 | 1.0 | 1.0 | 0.00 | 0.00 | 0.00 | 94 | 1007.6 |
| 20260506011714 | 77 | 23 | 0.0 | 0.0 | 0.00 | 0.00 | 0.00 | 94 | 1007.7 |
| 20260506011210 | 77 | 44 | 0.0 | 0.0 | 0.00 | 0.00 | 0.00 | 93 | 1007.7 |
| 20260506010709 | 77 | 44 | 0.0 | 1.0 | 0.00 | 0.00 | 0.00 | 93 | 1007.7 |
| 20260506010206 | 77 | 31 | 1.0 | 1.0 | 0.00 | 0.00 | 0.00 | 93 | 1007.7 |
| 20260506005703 | 77 | 19 | 1.0 | 1.0 | 0.00 | 0.00 | 0.00 | 93 | 1007.5 |
| 20260506005159 | 77 | 74 | 1.0 | 1.0 | 0.00 | 0.00 | 0.00 | 93 | 1007.4 |
| 20260506004655 | 77 | 74 | 0.0 | 0.0 | 0.00 | 0.00 | 0.00 | 93 | 1007.6 |
| 20260506004152 | 77 | 80 | 1.0 | 1.0 | 0.00 | 0.00 | 0.00 | 92 | 1007.4 |
| 20260506003648 | 77 | 52 | 0.0 | 1.0 | 0.00 | 0.00 | 0.00 | 92 | 1007.7 |
| 20260506003145 | 77 | 41 | 0.0 | 0.0 | 0.00 | 0.00 | 0.00 | 92 | 1007.7 |
| 20260506002641 | 78 | 54 | 2.0 | 2.0 | 0.00 | 0.00 | 0.00 | 92 | 1007.5 |
| 20260506002137 | 78 | 35 | 0.0 | 0.0 | 0.00 | 0.00 | 0.00 | 92 | 1007.5 |
| 20260506001633 | 78 | 24 | 0.0 | 1.0 | 0.00 | 0.00 | 0.00 | 92 | 1007.5 |
| 20260506001130 | 78 | 10 | 0.0 | 1.0 | 0.00 | 0.00 | 0.00 | 92 | 1007.5 |
| 20260506000628 | 78 | 10 | 1.0 | 1.0 | 0.00 | 0.00 | 0.00 | 92 | 1007.4 |
| 20260506000125 | 78 | 64 | 1.0 | 2.0 | 0.00 | 0.00 | 0.00 | 91 | 1007.3 |
| 20260505235618 | 78 | 42 | 1.0 | 1.0 | 0.00 | 0.00 | 0.00 | 92 | 1007.4 |
| 20260505235114 | 79 | 66 | 1.0 | 1.0 | 0.00 | 0.00 | 0.00 | 91 | 1007.4 |
| 20260505234611 | 79 | 29 | 0.0 | 0.0 | 0.00 | 0.00 | 0.00 | 91 | 1007.4 |
| 20260505234107 | 79 | 61 | 0.0 | 1.0 | 0.00 | 0.00 | 0.00 | 91 | 1007.5 |
| 20260505233605 | 79 | 16 | 0.0 | 0.0 | 0.00 | 0.00 | 0.00 | 90 | 1007.4 |
| 20260505233102 | 79 | 74 | 0.0 | 1.0 | 0.00 | 0.00 | 0.00 | 90 | 1007.5 |
| 20260505232600 | 79 | 100 | 2.0 | 2.0 | 0.00 | 0.00 | 0.00 | 90 | 1007.6 |
| 20260505232057 | 79 | 71 | 1.0 | 2.0 | 0.00 | 0.00 | 0.00 | 90 | 1007.4 |
| 20260505231554 | 79 | 13 | 1.0 | 2.0 | 0.00 | 0.00 | 0.00 | 90 | 1007.3 |
| 20260505231053 | 80 | 247 | 3.0 | 6.0 | 0.00 | 0.00 | 0.00 | 90 | 1007.4 |
| 20260505230550 | 80 | 61 | 1.0 | 1.0 | 0.00 | 0.00 | 0.00 | 90 | 1007.4 |
| 20260505230046 | 80 | 5 | 0.0 | 1.0 | 0.00 | 0.00 | 0.00 | 91 | 1007.5 |
| 20260505225543 | 80 | 154 | 0.0 | 1.0 | 0.00 | 0.00 | 0.00 | 90 | 1007.4 |
| 20260505225039 | 80 | 34 | 0.0 | 0.0 | 0.00 | 0.00 | 0.00 | 91 | 1007.2 |
| 20260505224536 | 80 | 49 | 1.0 | 1.0 | 0.00 | 0.00 | 0.00 | 91 | 1007.4 |
| 20260505224033 | 80 | 81 | 2.0 | 2.0 | 0.00 | 0.00 | 0.00 | 90 | 1007.3 |
| 20260505223530 | 80 | 35 | 0.0 | 0.0 | 0.00 | 0.00 | 0.00 | 90 | 1007.5 |
| 20260505223026 | 80 | 77 | 1.0 | 1.0 | 0.00 | 0.00 | 0.00 | 90 | 1007.4 |
| 20260505222523 | 80 | 85 | 0.0 | 1.0 | 0.00 | 0.00 | 0.00 | 90 | 1007.4 |
| 20260505222019 | 80 | 77 | 1.0 | 1.0 | 0.00 | 0.00 | 0.00 | 89 | 1007.4 |
| 20260505221517 | 81 | 39 | 0.0 | 0.0 | 0.00 | 0.00 | 0.00 | 88 | 1007.4 |
| 20260505221013 | 80 | 46 | 0.0 | 0.0 | 0.00 | 0.00 | 0.00 | 89 | 1007.5 |
| 20260505220511 | 80 | 30 | 0.0 | 1.0 | 0.00 | 0.00 | 0.00 | 88 | 1007.4 |
| 20260505220009 | 80 | 173 | 1.0 | 1.0 | 0.00 | 0.00 | 0.00 | 89 | 1007.5 |
| 20260505215507 | 80 | 61 | 1.0 | 1.0 | 0.00 | 0.00 | 0.00 | 89 | 1007.5 |
| 20260505215004 | 80 | 31 | 0.0 | 0.0 | 0.00 | 0.00 | 0.00 | 89 | 1007.8 |
| 20260505214502 | 80 | 43 | 0.0 | 1.0 | 0.00 | 0.00 | 0.00 | 88 | 1007.9 |
| 20260505213959 | 81 | 62 | 1.0 | 1.0 | 0.00 | 0.00 | 0.00 | 88 | 1007.7 |
| 20260505213456 | 81 | 61 | 1.0 | 1.0 | 0.00 | 0.00 | 0.00 | 86 | 1007.6 |
| 20260505212953 | 81 | 329 | 2.0 | 3.0 | 0.00 | 0.00 | 0.00 | 85 | 1007.7 |
| 20260505212449 | 81 | 56 | 1.0 | 1.0 | 0.00 | 0.00 | 0.00 | 87 | 1007.8 |
| 20260505211945 | 81 | 175 | 2.0 | 3.0 | 0.00 | 0.00 | 0.00 | 87 | 1007.8 |
| 20260505211443 | 81 | 94 | 2.0 | 3.0 | 0.00 | 0.00 | 0.00 | 87 | 1007.9 |
| 20260505210939 | 81 | 228 | 4.0 | 6.0 | 0.00 | 0.00 | 0.00 | 86 | 1007.8 |
| 20260505210437 | 80 | 98 | 1.0 | 2.0 | 0.00 | 0.00 | 0.00 | 88 | 1007.9 |
| 20260505205933 | 80 | 37 | 0.0 | 0.0 | 0.00 | 0.00 | 0.00 | 88 | 1008.1 |
| 20260505205432 | 80 | 41 | 0.0 | 1.0 | 0.00 | 0.00 | 0.00 | 88 | 1008.0 |
| 20260505204928 | 81 | 71 | 0.0 | 1.0 | 0.00 | 0.00 | 0.00 | 87 | 1008.2 |
| 20260505204426 | 81 | 37 | 0.0 | 0.0 | 0.00 | 0.00 | 0.00 | 87 | 1008.2 |
| 20260505203923 | 81 | 74 | 2.0 | 2.0 | 0.00 | 0.00 | 0.00 | 87 | 1008.3 |
| 20260505203419 | 81 | 177 | 2.0 | 2.0 | 0.00 | 0.00 | 0.00 | 86 | 1008.3 |
| 20260505202915 | 81 | 28 | 1.0 | 1.0 | 0.00 | 0.00 | 0.00 | 85 | 1008.4 |
| 20260505202411 | 82 | 35 | 1.0 | 1.0 | 0.00 | 0.00 | 0.00 | 86 | 1008.5 |
| 20260505201908 | 82 | 245 | 2.0 | 3.0 | 0.00 | 0.00 | 0.00 | 84 | 1008.5 |
| 20260505201406 | 81 | 87 | 1.0 | 2.0 | 0.00 | 0.00 | 0.00 | 86 | 1008.4 |
| 20260505200904 | 81 | 57 | 0.0 | 1.0 | 0.00 | 0.00 | 0.00 | 87 | 1008.7 |
| 20260505200401 | 81 | 57 | 1.0 | 1.0 | 0.00 | 0.00 | 0.00 | 85 | 1008.7 |
| 20260505195856 | 81 | 81 | 1.0 | 2.0 | 0.00 | 0.00 | 0.00 | 86 | 1008.9 |
| 20260505195353 | 80 | 343 | 4.0 | 4.0 | 0.00 | 0.00 | 0.00 | 88 | 1008.8 |
| 20260505194850 | 80 | 260 | 1.0 | 1.0 | 0.00 | 0.00 | 0.00 | 87 | 1008.8 |
| 20260505194348 | 81 | 247 | 2.0 | 2.0 | 0.00 | 0.00 | 0.00 | 86 | 1008.9 |
| 20260505193848 | 81 | 80 | 1.0 | 1.0 | 0.00 | 0.00 | 0.00 | 86 | 1008.8 |
| 20260505193346 | 80 | 127 | 2.0 | 3.0 | 0.00 | 0.00 | 0.00 | 87 | 1008.8 |
| 20260505192844 | 80 | 30 | 1.0 | 1.0 | 0.00 | 0.00 | 0.00 | 87 | 1009.0 |
| 20260505192342 | 80 | 189 | 3.0 | 4.0 | 0.00 | 0.00 | 0.00 | 87 | 1009.0 |
| 20260505191839 | 80 | 83 | 1.0 | 1.0 | 0.00 | 0.00 | 0.00 | 88 | 1009.2 |
| 20260505191338 | 79 | 21 | 1.0 | 2.0 | 0.00 | 0.00 | 0.00 | 88 | 1009.2 |
| 20260505190834 | 79 | 269 | 2.0 | 3.0 | 0.00 | 0.00 | 0.00 | 88 | 1009.1 |
| 20260505190329 | 79 | 143 | 1.0 | 2.0 | 0.00 | 0.00 | 0.00 | 88 | 1009.4 |
| 20260505185825 | 80 | 252 | 2.0 | 3.0 | 0.00 | 0.00 | 0.00 | 87 | 1009.2 |
| 20260505185322 | 80 | 312 | 1.0 | 1.0 | 0.00 | 0.00 | 0.00 | 87 | 1009.1 |
| 20260505184818 | 79 | 86 | 1.0 | 2.0 | 0.00 | 0.00 | 0.00 | 89 | 1009.3 |
| 20260505184315 | 78 | 126 | 3.0 | 3.0 | 0.00 | 0.00 | 0.00 | 90 | 1009.4 |
| 20260505183812 | 78 | 196 | 1.0 | 1.0 | 0.00 | 0.00 | 0.00 | 91 | 1009.4 |
| 20260505183309 | 78 | 274 | 2.0 | 3.0 | 0.00 | 0.00 | 0.00 | 91 | 1009.3 |
| 20260505182806 | 78 | 65 | 1.0 | 2.0 | 0.00 | 0.00 | 0.00 | 91 | 1009.3 |
| 20260505182305 | 78 | 136 | 1.0 | 2.0 | 0.00 | 0.00 | 0.00 | 90 | 1009.2 |
| 20260505181759 | 78 | 108 | 2.0 | 2.0 | 0.00 | 0.00 | 0.00 | 91 | 1009.3 |
| 20260505181257 | 78 | 85 | 2.0 | 2.0 | 0.00 | 0.00 | 0.00 | 91 | 1009.4 |
| 20260505180753 | 77 | 28 | 1.0 | 1.0 | 0.00 | 0.00 | 0.00 | 91 | 1009.5 |
| 20260505180249 | 78 | 195 | 4.0 | 6.0 | 0.00 | 0.00 | 0.00 | 91 | 1009.6 |
| 20260505175746 | 78 | 204 | 6.0 | 8.0 | 0.00 | 0.00 | 0.00 | 91 | 1009.6 |
| 20260505175243 | 77 | 14 | 1.0 | 1.0 | 0.00 | 0.00 | 0.00 | 92 | 1009.6 |
| 20260505174739 | 77 | 83 | 1.0 | 1.0 | 0.00 | 0.00 | 0.00 | 91 | 1009.6 |
| 20260505174236 | 77 | 56 | 1.0 | 1.0 | 0.00 | 0.00 | 0.00 | 92 | 1009.6 |
| 20260505173732 | 77 | 39 | 0.0 | 1.0 | 0.00 | 0.00 | 0.00 | 93 | 1010.0 |
| 20260505173229 | 77 | 56 | 1.0 | 2.0 | 0.00 | 0.00 | 0.00 | 92 | 1009.9 |
| 20260505172726 | 77 | 27 | 0.0 | 1.0 | 0.00 | 0.00 | 0.00 | 92 | 1009.8 |
| 20260505172223 | 77 | 51 | 1.0 | 1.0 | 0.00 | 0.00 | 0.00 | 92 | 1009.9 |
| 20260505171723 | 77 | 56 | 0.0 | 0.0 | 0.00 | 0.00 | 0.00 | 93 | 1009.7 |
| 20260505171220 | 77 | 164 | 2.0 | 3.0 | 0.00 | 0.00 | 0.00 | 93 | 1010.0 |
| 20260505170717 | 76 | 158 | 1.0 | 2.0 | 0.00 | 0.00 | 0.00 | 93 | 1009.6 |
| 20260505170214 | 77 | 175 | 4.0 | 7.0 | 0.00 | 0.00 | 0.00 | 92 | 1009.6 |
| 20260505165709 | 77 | 47 | 0.0 | 0.0 | 0.00 | 0.00 | 0.00 | 92 | 1009.6 |
| 20260505165206 | 77 | 67 | 2.0 | 2.0 | 0.00 | 0.00 | 0.00 | 92 | 1009.6 |
| 20260505164701 | 77 | 185 | 4.0 | 7.0 | 0.00 | 0.00 | 0.00 | 91 | 1009.7 |
| 20260505164158 | 77 | 207 | 1.0 | 2.0 | 0.00 | 0.00 | 0.00 | 91 | 1009.8 |
| 20260505163656 | 77 | 33 | 1.0 | 1.0 | 0.00 | 0.00 | 0.00 | 91 | 1009.6 |
| 20260505163154 | 77 | 88 | 2.0 | 2.0 | 0.00 | 0.00 | 0.00 | 92 | 1009.9 |
| 20260505162651 | 77 | 85 | 1.0 | 2.0 | 0.00 | 0.00 | 0.00 | 91 | 1009.7 |
| 20260505162149 | 77 | 307 | 1.0 | 2.0 | 0.00 | 0.00 | 0.00 | 91 | 1010.1 |
| 20260505161645 | 77 | 79 | 2.0 | 2.0 | 0.00 | 0.00 | 0.00 | 92 | 1009.8 |
| 20260505161143 | 77 | 37 | 1.0 | 1.0 | 0.00 | 0.00 | 0.00 | 92 | 1009.7 |
| 20260505160641 | 77 | 78 | 1.0 | 1.0 | 0.00 | 0.00 | 0.00 | 92 | 1009.8 |
| 20260505160138 | 77 | 189 | 1.0 | 1.0 | 0.00 | 0.00 | 0.00 | 91 | 1009.6 |
| 20260505153118 | 75 | 46 | 1.0 | 1.0 | 0.00 | 0.00 | 0.00 | 94 | 1009.9 |
| 20260505152614 | 75 | 55 | 0.0 | 1.0 | 0.00 | 0.00 | 0.00 | 93 | 1009.8 |
| 20260505152110 | 75 | 55 | 0.0 | 0.0 | 0.00 | 0.00 | 0.00 | 93 | 1009.8 |
| 20260505151605 | 75 | 64 | 0.0 | 0.0 | 0.00 | 0.00 | 0.00 | 94 | 1009.6 |
| 20260505151103 | 75 | 67 | 1.0 | 1.0 | 0.00 | 0.00 | 0.00 | 94 | 1009.8 |
| 20260505150559 | 75 | 39 | 0.0 | 0.0 | 0.00 | 0.00 | 0.00 | 94 | 1009.9 |
| 20260505140525 | 73 | 213 | 2.0 | 4.0 | 0.00 | 0.00 | 0.00 | 94 | 1009.6 |
| 20260505124937 | 71 | 53 | 0.0 | 0.0 | 0.00 | 0.00 | 0.00 | 97 | 1009.2 |
| 20260505124434 | 71 | 63 | 1.0 | 1.0 | 0.00 | 0.00 | 0.00 | 97 | 1009.3 |
| 20260505123931 | 71 | 33 | 0.0 | 0.0 | 0.00 | 0.00 | 0.00 | 98 | 1009.2 |
| 20260505123427 | 70 | 41 | 1.0 | 1.0 | 0.00 | 0.00 | 0.00 | 98 | 1009.4 |
| 20260505122923 | 70 | 21 | 0.0 | 0.0 | 0.00 | 0.00 | 0.00 | 98 | 1009.2 |
| 20260505122421 | 70 | 57 | 0.0 | 0.0 | 0.00 | 0.00 | 0.00 | 98 | 1009.1 |
| 20260505121918 | 70 | 57 | 0.0 | 0.0 | 0.00 | 0.00 | 0.00 | 98 | 1009.1 |
| 20260505121415 | 70 | 51 | 0.0 | 0.0 | 0.00 | 0.00 | 0.00 | 98 | 1009.2 |
| 20260505120911 | 70 | 68 | 0.0 | 0.0 | 0.00 | 0.00 | 0.00 | 98 | 1009.2 |
| 20260505120407 | 69 | 54 | 0.0 | 0.0 | 0.00 | 0.00 | 0.00 | 98 | 1009.0 |
| 20260505115905 | 69 | 64 | 0.0 | 0.0 | 0.00 | 0.00 | 0.00 | 98 | 1008.9 |
| 20260505115402 | 69 | 57 | 0.0 | 0.0 | 0.00 | 0.00 | 0.00 | 98 | 1008.9 |
| 20260505114901 | 69 | 44 | 0.0 | 0.0 | 0.00 | 0.00 | 0.00 | 99 | 1008.9 |
| 20260505114357 | 69 | 44 | 0.0 | 0.0 | 0.00 | 0.00 | 0.00 | 99 | 1008.8 |
| 20260505113854 | 69 | 39 | 0.0 | 0.0 | 0.00 | 0.00 | 0.00 | 99 | 1008.8 |
| 20260505113350 | 69 | 55 | 0.0 | 0.0 | 0.00 | 0.00 | 0.00 | 99 | 1009.0 |
| 20260505112845 | 68 | 50 | 0.0 | 0.0 | 0.00 | 0.00 | 0.00 | 99 | 1008.9 |
| 20260505112344 | 68 | 56 | 0.0 | 0.0 | 0.00 | 0.00 | 0.00 | 99 | 1008.7 |
| 20260505111839 | 68 | 58 | 0.0 | 0.0 | 0.00 | 0.00 | 0.00 | 99 | 1008.8 |
| 20260505111334 | 68 | 70 | 0.0 | 0.0 | 0.00 | 0.00 | 0.00 | 99 | 1008.9 |
| 20260505110830 | 68 | 80 | 0.0 | 0.0 | 0.00 | 0.00 | 0.00 | 99 | 1008.7 |
| 20260505110328 | 67 | 49 | 0.0 | 0.0 | 0.00 | 0.00 | 0.00 | 99 | 1008.8 |
| 20260505101803 | 67 | 42 | 0.0 | 0.0 | 0.00 | 0.00 | 0.00 | 99 | 1008.8 |
| 20260505101258 | 66 | 41 | 0.0 | 0.0 | 0.00 | 0.00 | 0.00 | 99 | 1008.8 |
| 20260505100754 | 66 | 41 | 0.0 | 0.0 | 0.00 | 0.00 | 0.00 | 99 | 1009.0 |
| 20260505100251 | 66 | 39 | 0.0 | 0.0 | 0.00 | 0.00 | 0.00 | 99 | 1009.1 |
| 20260505095747 | 66 | 37 | 0.0 | 0.0 | 0.00 | 0.00 | 0.00 | 98 | 1009.0 |
| 20260505095245 | 67 | 45 | 0.0 | 0.0 | 0.00 | 0.00 | 0.00 | 98 | 1009.0 |
| 20260505094740 | 67 | 45 | 0.0 | 0.0 | 0.00 | 0.00 | 0.00 | 98 | 1009.0 |
| 20260505094237 | 67 | 47 | 0.0 | 1.0 | 0.00 | 0.00 | 0.00 | 98 | 1009.2 |
| 20260505093733 | 67 | 35 | 0.0 | 0.0 | 0.00 | 0.00 | 0.00 | 98 | 1009.2 |
| 20260505093231 | 67 | 36 | 0.0 | 0.0 | 0.00 | 0.00 | 0.00 | 98 | 1009.3 |
| 20260505092727 | 67 | 37 | 0.0 | 0.0 | 0.00 | 0.00 | 0.00 | 98 | 1009.2 |
| 20260505092226 | 67 | 38 | 0.0 | 0.0 | 0.00 | 0.00 | 0.00 | 98 | 1009.4 |
| 20260505091723 | 66 | 39 | 1.0 | 2.0 | 0.00 | 0.00 | 0.00 | 98 | 1009.4 |
| 20260505091221 | 66 | 33 | 0.0 | 0.0 | 0.00 | 0.00 | 0.00 | 98 | 1009.4 |
| 20260505090718 | 66 | 27 | 0.0 | 0.0 | 0.00 | 0.00 | 0.00 | 98 | 1009.5 |
| 20260505090216 | 66 | 25 | 0.0 | 0.0 | 0.00 | 0.00 | 0.00 | 98 | 1009.5 |
| 20260505085713 | 66 | 20 | 0.0 | 0.0 | 0.00 | 0.00 | 0.00 | 98 | 1009.4 |
| 20260505085212 | 66 | 14 | 0.0 | 0.0 | 0.00 | 0.00 | 0.00 | 98 | 1009.6 |
| 20260505084709 | 66 | 36 | 0.0 | 0.0 | 0.00 | 0.00 | 0.00 | 99 | 1009.5 |
| 20260505084208 | 66 | 26 | 0.0 | 0.0 | 0.00 | 0.00 | 0.00 | 99 | 1009.3 |
| 20260505083704 | 65 | 25 | 0.0 | 0.0 | 0.00 | 0.00 | 0.00 | 99 | 1009.6 |
| 20260505083201 | 65 | 25 | 0.0 | 0.0 | 0.00 | 0.00 | 0.00 | 99 | 1009.7 |
| 20260505082657 | 65 | 24 | 0.0 | 0.0 | 0.00 | 0.00 | 0.00 | 99 | 1009.5 |
| 20260505082154 | 65 | 25 | 0.0 | 0.0 | 0.00 | 0.00 | 0.00 | 99 | 1009.7 |
| 20260505081649 | 65 | 23 | 0.0 | 0.0 | 0.00 | 0.00 | 0.00 | 99 | 1009.8 |
| 20260505081148 | 65 | 23 | 0.0 | 0.0 | 0.00 | 0.00 | 0.00 | 99 | 1009.7 |
| 20260505080644 | 65 | 23 | 0.0 | 0.0 | 0.00 | 0.00 | 0.00 | 99 | 1009.6 |
| 20260505080140 | 65 | 17 | 0.0 | 0.0 | 0.00 | 0.00 | 0.00 | 99 | 1009.6 |
| 20260505075636 | 65 | 17 | 0.0 | 0.0 | 0.00 | 0.00 | 0.00 | 99 | 1009.8 |
| 20260505075133 | 65 | 17 | 0.0 | 0.0 | 0.00 | 0.00 | 0.00 | 99 | 1009.9 |
| 20260505074630 | 64 | 15 | 0.0 | 0.0 | 0.00 | 0.00 | 0.00 | 99 | 1009.7 |